DELTA 1 DEB, 12528

Orbit data source: Space-Track

DELTA 1 DEB, 12528 is space debris in SSO originally from a launch on Thu, 29 Jul 1976 UTC launched from the Air Force Western Test Range (AFWTR). Debris objects in space refer to the collection of defunct objects orbiting the Earth. Examples of debris include non-operational satellites, rocket bodies, and fragments generated from explosions, collisions, or faulty payload assembly.

Loading next visibility...
Identifier
12528, 1976-077DH
Orbit
SSO
Country
Flag of USUS
Related business
Manufacturer
Unknown
Mission
Spacecraft
Bus & Motor
Unknown
Mass
Unknown
Launch date (UTC)
1976-07-29 (49 years ago)
Launch vehicle
Unknown
Launch site
Air Force Western Test Range (AFWTR)
Object type
Payload
Rocket body
Debris
Shape & HBR
Unknown shape, 0.4 m
Radar Cross Section
Medium (>0.1 m² and <1 m²)

Expand to show TLE details & history
Last TLE update: 11 hours ago

TLE from 11 hours ago
0 DELTA 1 DEB
1 12528U 76077DH  25301.53255792  .00000002  00000-0  41758-3 0  9994
2 12528 102.5395 280.7943 0078293 343.4522 136.9812 12.27214206142767
Epoch: 2025-10-28T12:46Z
TLE epoch observation values (Epoch: 2025-10-28T12:46:53.004Z)
Latitude
56.85041°
Longitude
-108.23526°
Altitude
1,616.233 km
Speed
7.047 km/s
True Right ascension
08h 02m 25s
True Declination
56° 42' 35"
Sunlit
Object was in daylight at epoch
Visualization orbit readout
Latitude
Unknown
Longitude
Unknown
Altitude
Unknown
Speed
Unknown
Apparent Right ascension
Unknown
Apparent Declination
Unknown
Sunlit
N/A
Visualization observer readout
Local Sidereal Time
19:14:16
Azimuth
Unknown
Elevation
Unknown
Doppler factor
Unknown
Orbital elements
Apogee altitude
1,621.039 km
Perigee altitude
1,496.756 km
Semi-major axis
7,937.034 km
Eccentricity
0.00783
Inclination
102.5395°
RAAN
280.7943°
Arg. of periapsis
343.4522°
True anomaly
137.58892°
Mean anomaly
136.9812°
Eccentric anomaly
137.2855°
Mean motion
3.06942 °/min
Orbital period
117.29 mins
BSTAR
0.00041758
Loading maneuver chart data...
Computing Atmospheric mass density...
Loading historical data...
Loading historical data...
Loading historical data...
Loading historical data...
Loading historical data...
Loading historical data...
Loading historical data...

Documentation

Showing up to 5 results
|